, NV

(GMT )
Eureka Airport

Weather History for K05U - May, 2013

Change the Weather History Date:

Wednesday, May 15, 2013

  Actual Average Record
Temperature  
Mean Temperature 60 °F -  
Max Temperature 80 °F - - ()
Min Temperature 41 °F - - ()
Degree Days  
Heating Degree Days 4    
Growing Degree Days 10 (Base 50)    
Moisture  
Dew Point 27 °F    
Average Humidity 32    
Maximum Humidity 70    
Minimum Humidity 11    
Precipitation  
Precipitation 0.00 in - - ()
Sea Level Pressure  
Sea Level Pressure 30.03 in    
Wind  
Wind Speed 6 mph (West)    
Max Wind Speed 21 mph    
Max Gust Speed 26 mph    
Visibility 9 miles    
Events      
T = Trace of Precipitation, MM = Missing Value Source: NWS Daily Summary

Daily Weather History Graph

Daily Weather History Graph

Search for Another Location

Airport or City:

Trip Planner

Search our weather history database for the weather conditions in past years. The results will help you decide how hot, cold, wet, or windy it might be!

Date:

Astronomy

May. 15, 2013 Rise Set
Actual Time 5:29 AM PDT 7:51 PM PDT
Civil Twilight 4:59 AM PDT 8:22 PM PDT
Nautical Twilight 4:21 AM PDT 9:00 PM PDT
Astronomical Twilight 3:40 AM PDT 9:41 PM PDT
Moon 10:09 AM PDT (5/15) No Moon Set
Length of Visible Light 15h 23m
Length of Day
14h 22m
Waxing Crescent, 28% of the Moon is Illuminated
May 15
Waxing Crescent
May 17
First Quarter
May 24
Full
May 31
Last Quarter
Jun 8
New

Hourly Weather History & Observations

Time (PDT) Temp. Windchill Dew Point Humidity Pressure Visibility Wind Dir Wind Speed Gust Speed Precip Events Conditions
12:10 AM 50.0 °F - 32.0 °F 50% 30.08 in 10.0 mi SSW 6.9 mph - N/A   Clear
12:30 AM 46.4 °F 43.5 °F 32.0 °F 57% 30.08 in 10.0 mi SW 5.8 mph - N/A   Clear
12:50 AM 48.2 °F - 33.8 °F 58% 30.08 in 10.0 mi South 5.8 mph - N/A   Clear
1:10 AM 50.0 °F - 33.8 °F 54% 30.07 in 10.0 mi SSW 6.9 mph - N/A   Partly Cloudy
1:30 AM 48.2 °F - 32.0 °F 54% 30.07 in 10.0 mi SSW 5.8 mph - N/A   Clear
1:50 AM 46.4 °F 41.9 °F 33.8 °F 62% 30.07 in 10.0 mi SSW 9.2 mph - N/A   Clear
2:10 AM 50.0 °F - 32.0 °F 50% 30.06 in 10.0 mi SW 11.5 mph - N/A   Clear
2:30 AM 51.8 °F - 32.0 °F 47% 30.06 in 10.0 mi West 6.9 mph - N/A   Clear
2:50 AM 44.6 °F - 32.0 °F 61% 30.06 in 10.0 mi Calm Calm - N/A   Clear
3:10 AM 42.8 °F - 32.0 °F 66% 30.06 in 10.0 mi Calm Calm - N/A   Clear
3:30 AM 41.0 °F - 32.0 °F 70% 30.07 in 10.0 mi Calm Calm - N/A   Clear
3:50 AM 41.0 °F - 32.0 °F 70% 30.08 in 10.0 mi Calm Calm - N/A   Clear
4:10 AM 41.0 °F 39.0 °F 32.0 °F 70% 30.07 in 10.0 mi South 3.5 mph - N/A   Partly Cloudy
4:30 AM 41.0 °F 36.4 °F 32.0 °F 70% 30.08 in 10.0 mi SSW 6.9 mph - N/A   Scattered Clouds
4:50 AM 41.0 °F 35.8 °F 32.0 °F 70% 30.07 in 10.0 mi SW 8.1 mph - N/A   Scattered Clouds
5:10 AM 44.6 °F 40.7 °F 32.0 °F 61% 30.07 in 10.0 mi South 6.9 mph - N/A   Clear
5:30 AM 44.6 °F 40.2 °F 32.0 °F 61% 30.07 in 10.0 mi SSW 8.1 mph - N/A   Partly Cloudy
5:50 AM 44.6 °F 42.2 °F 32.0 °F 61% 30.07 in 10.0 mi SSW 4.6 mph - N/A   Clear
6:10 AM 46.4 °F - 32.0 °F 57% 30.07 in 10.0 mi Calm Calm - N/A   Clear
6:30 AM 48.2 °F - 33.8 °F 58% 30.07 in 10.0 mi South 3.5 mph - N/A   Clear
6:50 AM 51.8 °F - 35.6 °F 54% 30.07 in 10.0 mi Calm Calm - N/A   Clear
7:10 AM 55.4 °F - 33.8 °F 44% 30.07 in 10.0 mi Calm Calm - N/A   Clear
7:30 AM 55.4 °F - 35.6 °F 47% 30.08 in 10.0 mi Calm Calm - N/A   Clear
7:50 AM 59.0 °F - 35.6 °F 42% 30.08 in 10.0 mi North 3.5 mph - N/A   Clear
8:10 AM 60.8 °F - 35.6 °F 39% 30.08 in 10.0 mi Calm Calm - N/A   Clear
8:30 AM 62.6 °F - 35.6 °F 37% 30.08 in 10.0 mi East 3.5 mph - N/A   Clear
8:50 AM 64.4 °F - 35.6 °F 34% 30.08 in 10.0 mi Calm Calm - N/A   Clear
9:10 AM 66.2 °F - 33.8 °F 30% 30.08 in 10.0 mi Calm Calm - N/A   Clear
9:30 AM 68.0 °F - 32.0 °F 26% 30.08 in 10.0 mi Calm Calm - N/A   Clear
9:50 AM 68.0 °F - 32.0 °F 26% 30.08 in 10.0 mi Calm Calm - N/A   Clear
10:10 AM 71.6 °F - 33.8 °F 25% 30.08 in 10.0 mi Calm Calm - N/A   Clear
10:30 AM 73.4 °F - 33.8 °F 23% 30.07 in 10.0 mi SE 3.5 mph - N/A   Clear
10:50 AM 73.4 °F - 32.0 °F 22% 30.06 in 10.0 mi Calm Calm - N/A   Clear
11:10 AM 73.4 °F - 33.8 °F 23% 30.06 in 10.0 mi SE 4.6 mph - N/A   Clear
11:30 AM 73.4 °F - 33.8 °F 23% 30.05 in 10.0 mi East 4.6 mph - N/A   Clear
11:50 AM 75.2 °F - 32.0 °F 21% 30.04 in 10.0 mi East 5.8 mph - N/A   Clear
12:10 PM 75.2 °F - 32.0 °F 21% 30.03 in 10.0 mi East 6.9 mph - N/A   Clear
12:30 PM 75.2 °F - 32.0 °F 21% 30.02 in 10.0 mi ENE 3.5 mph - N/A   Clear
12:50 PM 77.0 °F - 32.0 °F 19% 30.01 in 10.0 mi ENE 4.6 mph - N/A   Clear
1:10 PM 77.0 °F - 30.2 °F 18% 30.00 in 10.0 mi East 3.5 mph - N/A   Scattered Clouds
1:30 PM 77.0 °F - 30.2 °F 18% 30.00 in 10.0 mi NE 3.5 mph - N/A   Mostly Cloudy
1:50 PM 78.8 °F - 28.4 °F 16% 29.99 in 10.0 mi West 10.4 mph 18.4 mph N/A   Scattered Clouds
2:30 PM 78.8 °F - 28.4 °F 16% 29.99 in 10.0 mi WNW 8.1 mph 16.1 mph N/A   Clear
2:50 PM 80.6 °F - 30.2 °F 16% 29.98 in 10.0 mi NNW 12.7 mph 18.4 mph N/A   Scattered Clouds
3:10 PM 78.8 °F - 30.2 °F 17% 29.97 in 10.0 mi Calm Calm - N/A   Mostly Cloudy
3:30 PM 78.8 °F - 28.4 °F 16% 29.96 in 10.0 mi WSW 10.4 mph - N/A   Mostly Cloudy
3:50 PM 77.0 °F - 28.4 °F 17% 29.96 in 10.0 mi Calm Calm - N/A   Mostly Cloudy
4:10 PM 77.0 °F - 28.4 °F 17% 29.95 in 10.0 mi West 15.0 mph 21.9 mph N/A   Partly Cloudy
4:30 PM 75.2 °F - 28.4 °F 18% 29.95 in 10.0 mi West 15.0 mph 20.7 mph N/A   Clear
4:50 PM 73.4 °F - 28.4 °F 19% 29.95 in 10.0 mi WNW 4.6 mph 17.3 mph N/A   Partly Cloudy
5:10 PM 77.0 °F - 24.8 °F 14% 29.95 in 10.0 mi West 16.1 mph - N/A   Partly Cloudy
5:30 PM 77.0 °F - 21.2 °F 12% 29.95 in 10.0 mi West 16.1 mph 25.3 mph N/A   Partly Cloudy
5:50 PM 75.2 °F - 19.4 °F 12% 29.95 in 10.0 mi West 16.1 mph 24.2 mph N/A   Clear
6:10 PM 73.4 °F - 19.4 °F 13% 29.95 in 10.0 mi West 16.1 mph 25.3 mph N/A   Clear
6:30 PM 71.6 °F - 21.2 °F 15% 29.96 in 10.0 mi NW 20.7 mph 26.5 mph N/A   Clear
6:50 PM 71.6 °F - 21.2 °F 15% 29.97 in 10.0 mi NW 12.7 mph 23.0 mph N/A   Clear
7:10 PM 69.8 °F - 21.2 °F 16% 29.98 in 10.0 mi NW 10.4 mph 18.4 mph N/A   Clear
7:25 PM 68.0 °F - 19.4 °F 16% 29.98 in 10.0 mi WNW 10.4 mph 19.6 mph N/A   Clear
7:50 PM 68.0 °F - 14.0 °F 12% 29.99 in 7.0 mi WNW 15.0 mph 24.2 mph N/A   Clear
8:10 PM 66.2 °F - 14.0 °F 13% 30.00 in 7.0 mi WNW 11.5 mph 17.3 mph N/A   Clear
8:30 PM 66.2 °F - 12.2 °F 12% 30.01 in 7.0 mi WNW 11.5 mph - N/A   Clear
8:45 PM 66.2 °F - 10.4 °F 11% 30.01 in 6.0 mi WNW 9.2 mph 17.3 mph N/A   Clear
9:10 PM 64.4 °F - 10.4 °F 12% 30.02 in 5.0 mi West 11.5 mph 17.3 mph N/A   Partly Cloudy
9:30 PM 64.4 °F - 12.2 °F 13% 30.03 in 4.0 mi West 12.7 mph 18.4 mph N/A   Scattered Clouds
9:50 PM 64.4 °F - 12.2 °F 13% 30.04 in 3.0 mi WNW 9.2 mph 19.6 mph N/A   Overcast
10:10 PM 62.6 °F - 14.0 °F 15% 30.04 in 4.0 mi West 12.7 mph 19.6 mph N/A   Overcast
10:30 PM 62.6 °F - 14.0 °F 15% 30.04 in 4.0 mi WNW 5.8 mph - N/A   Overcast
10:50 PM 62.6 °F - 14.0 °F 15% 30.04 in 4.0 mi West 4.6 mph - N/A   Overcast
11:10 PM 59.0 °F - 15.8 °F 19% 30.04 in 5.0 mi WNW 5.8 mph - N/A   Scattered Clouds
11:30 PM 59.0 °F - 14.0 °F 17% 30.04 in 10.0 mi WNW 6.9 mph 17.3 mph N/A   Partly Cloudy
11:50 PM 60.8 °F - 15.8 °F 17% 30.03 in 9.0 mi WNW 4.6 mph - N/A   Scattered Clouds